W1LH-13 Weather Reports


Display with metric or nautical units.
time (UTC)temp
F
wind
direction
speed
MPH
gust
MPH
rain 1hr
in
rain 24hr
in
rain mn
in
humidity
%
barometer
mb
20260505065853 44 111 1.0 3.0 0.00 0.00 0.00 91 1008.1
20260505065335 44 132 1.0 2.0 0.00 0.00 0.00 91 1008.0
20260505064840 44 188 1.0 2.0 0.00 0.00 0.00 91 1008.0
20260505064323 44 188 1.0 2.0 0.00 0.00 0.00 91 1008.0
20260505063828 44 188 0.0 1.0 0.00 0.00 0.00 91 1007.9
20260505063332 45 188 0.0 1.0 0.00 0.00 0.00 91 1007.9
20260505062837 45 128 0.0 3.0 0.00 0.00 0.00 91 1007.9
20260505062321 45 216 0.0 3.0 0.00 0.00 0.00 91 1007.8
20260505061846 45 117 1.0 2.0 0.00 0.00 0.00 91 1007.8
20260505061334 45 314 1.0 2.0 0.00 0.00 0.00 91 1007.8
20260505060820 45 207 1.0 3.0 0.00 0.00 0.00 91 1007.7
20260505060324 45 207 1.0 3.0 0.00 0.00 0.00 91 1007.8
20260505055828 45 71 1.0 3.0 0.00 0.00 0.00 91 1008.0
20260505055353 45 168 1.0 2.0 0.00 0.00 0.00 91 1007.9
20260505054836 45 168 1.0 2.0 0.00 0.00 0.00 91 1008.0
20260505054321 45 168 0.0 3.0 0.00 0.00 0.00 92 1007.9
20260505053845 45 279 1.0 3.0 0.00 0.00 0.00 91 1007.8
20260505053348 45 223 1.0 4.0 0.00 0.00 0.00 92 1007.9
20260505052853 45 223 1.0 4.0 0.00 0.00 0.00 92 1007.9
20260505052335 45 61 327.0 327.0 0.00 0.00 0.00 92 1007.7
20260505051820 44 259 0.0 1.0 0.00 0.00 0.00 92 1007.7
20260505051323 44 259 0.0 3.0 0.00 0.00 0.00 91 1007.7
20260505050830 45 259 1.0 3.0 0.00 0.00 0.00 92 1007.7
20260505050337 44 259 0.0 3.0 0.00 0.00 0.00 91 1007.7
20260505041320 45 259 3.0 4.0 0.00 0.00 0.00 90 1008.1
20260505040828 45 259 3.0 4.0 0.00 0.00 0.00 90 1008.2
20260505040332 45 259 3.0 4.0 0.00 0.00 0.00 90 1008.0
20260505035838 45 259 2.0 4.0 0.00 0.00 0.00 90 1007.8
20260505035322 45 259 2.0 4.0 0.00 0.00 0.00 90 1008.0
20260505034825 46 259 2.0 3.0 0.00 0.00 0.00 90 1007.9
20260505034330 46 259 2.0 3.0 0.00 0.00 0.00 90 1008.0
20260505033834 45 259 1.0 3.0 0.00 0.00 0.00 90 1008.0
20260505033359 45 259 1.0 3.0 0.00 0.00 0.00 89 1008.0
20260505032822 45 259 3.0 3.0 0.00 0.00 0.00 89 1007.8
20260505032327 46 259 2.0 3.0 0.00 0.00 0.00 89 1007.8
20260505031831 46 259 2.0 3.0 0.00 0.00 0.00 89 1007.8
20260505031336 46 259 2.0 3.0 0.00 0.00 0.00 88 1007.7
20260505030822 46 259 2.0 3.0 0.00 0.00 0.00 88 1007.8
20260505030328 46 259 2.0 3.0 0.00 0.00 0.00 88 1007.8
20260505025853 46 259 0.0 2.0 0.00 0.01 0.00 88 1007.7
20260505025337 47 259 0.0 3.0 0.00 0.01 0.00 89 1007.6
20260505024821 47 259 2.0 4.0 0.00 0.01 0.00 88 1007.8
20260505024325 47 253 3.0 4.0 0.00 0.01 0.00 89 1007.7
20260505023831 47 278 3.0 5.0 0.00 0.01 0.00 89 1007.7
20260505023335 47 290 3.0 5.0 0.00 0.01 0.00 89 1007.6
20260505022900 46 263 3.0 5.0 0.00 0.01 0.00 89 1007.8
20260505022323 46 292 4.0 5.0 0.00 0.01 0.00 90 1007.7
20260505021848 45 286 3.0 4.0 0.00 0.01 0.00 88 1007.7
20260505021331 45 286 1.0 2.0 0.00 0.01 0.00 88 1007.4
20260505020835 45 286 1.0 3.0 0.00 0.01 0.00 88 1007.3
20260505020343 45 286 2.0 3.0 0.00 0.01 0.00 88 1007.3
20260505015827 45 286 3.0 3.0 0.00 0.02 0.00 88 1007.3
20260505015351 46 286 3.0 4.0 0.00 0.02 0.00 87 1007.3
20260505014855 46 286 3.0 4.0 0.00 0.02 0.00 87 1007.3
20260505014339 46 270 2.0 3.0 0.00 0.02 0.00 87 1007.2
20260505013824 46 270 3.0 3.0 0.00 0.02 0.00 86 1007.2
20260505013329 46 270 2.0 3.0 0.00 0.02 0.00 86 1007.1
20260505012834 46 270 2.0 3.0 0.00 0.02 0.00 86 1007.0
20260505012339 46 270 2.0 3.0 0.00 0.02 0.00 85 1007.0
20260505011823 47 270 2.0 3.0 0.00 0.02 0.00 84 1007.1
20260505011348 47 271 2.0 3.0 0.00 0.02 0.00 84 1007.1
20260505010852 47 310 2.0 3.0 0.00 0.02 0.00 83 1007.0
20260505010336 48 310 2.0 3.0 0.00 0.02 0.00 82 1006.9
20260505005820 48 310 2.0 2.0 0.00 0.03 0.00 81 1006.9
20260505005329 49 310 1.0 2.0 0.00 0.03 0.00 79 1006.8
20260505004835 49 310 1.0 2.0 0.00 0.03 0.00 78 1006.7
20260505004339 50 310 1.0 3.0 0.00 0.03 0.00 77 1006.6
20260505003823 51 310 1.0 3.0 0.00 0.03 0.00 77 1006.5
20260505003328 51 310 2.0 3.0 0.00 0.03 0.00 77 1006.5
20260505002834 52 310 2.0 3.0 0.00 0.03 0.00 76 1006.4
20260505002337 52 310 2.0 4.0 0.00 0.03 0.00 77 1006.2
20260505001821 52 310 2.0 5.0 0.00 0.03 0.00 77 1006.1
20260505001327 52 299 3.0 5.0 0.00 0.03 0.00 77 1005.9
20260505000852 52 299 3.0 5.0 0.00 0.03 0.00 76 1005.9
20260505000334 53 298 3.0 5.0 0.00 0.03 0.00 76 1005.8
20260504235824 53 288 3.0 5.0 0.00 0.04 0.00 75 1005.6
20260504235328 53 282 3.0 6.0 0.00 0.04 0.00 75 1005.6
20260504234833 54 287 3.0 6.0 0.00 0.04 0.00 74 1005.6
20260504234337 54 283 3.0 5.0 0.00 0.04 0.00 74 1005.5
20260504233820 54 292 3.0 7.0 0.00 0.04 0.00 73 1005.4
20260504233325 55 298 3.0 11.0 0.00 0.04 0.00 72 1005.3
20260504232829 55 286 5.0 11.0 0.00 0.04 0.00 72 1005.3
20260504232333 55 260 3.0 6.0 0.00 0.04 0.00 72 1005.2
20260504231839 55 302 4.0 9.0 0.00 0.04 0.00 71 1005.2
20260504231323 56 300 4.0 9.0 0.00 0.04 0.00 71 1005.1
20260504230848 56 292 5.0 11.0 0.00 0.04 0.00 70 1005.0
20260504230333 56 292 5.0 12.0 0.00 0.04 0.00 70 1004.9
20260504225821 56 275 7.0 12.0 0.00 0.05 0.00 69 1004.8
20260504225347 56 292 6.0 10.0 0.00 0.05 0.00 68 1004.6
20260504224831 57 286 5.0 11.0 0.00 0.05 0.00 68 1004.6
20260504224335 57 286 327.0 327.0 0.00 0.00 0.00 68 1004.7
20260504223841 57 303 9.0 14.0 0.00 0.05 0.00 67 1004.6
20260504223325 57 296 7.0 11.0 0.00 0.05 0.00 66 1004.5
20260504222830 58 298 6.0 10.0 0.00 0.05 0.00 66 1004.5
20260504222334 58 290 6.0 11.0 0.00 0.05 0.00 67 1004.4
20260504221838 58 303 7.0 11.0 0.00 0.05 0.00 67 1004.3
20260504221322 58 274 5.0 11.0 0.00 0.05 0.00 66 1004.2
20260504220826 58 310 7.0 12.0 0.00 0.05 0.00 66 1004.2
20260504220331 58 293 7.0 13.0 0.00 0.05 0.00 66 1004.1
20260504215820 58 281 8.0 15.0 0.00 0.07 0.00 65 1004.1
20260504215325 58 280 9.0 15.0 0.00 0.07 0.00 64 1003.9
20260504214851 58 281 8.0 14.0 0.00 0.07 0.00 64 1003.9
20260504214335 58 298 8.0 17.0 0.00 0.07 0.00 64 1003.8
20260504213838 59 260 10.0 17.0 0.00 0.07 0.00 64 1003.8
20260504213324 59 265 7.0 12.0 0.00 0.07 0.00 64 1003.8
20260504212849 59 281 7.0 12.0 0.00 0.07 0.00 63 1003.7
20260504212333 59 315 6.0 9.0 0.00 0.07 0.00 63 1003.6
20260504211836 59 271 6.0 10.0 0.00 0.07 0.00 63 1003.6
20260504211341 59 288 5.0 10.0 0.00 0.07 0.00 63 1003.5
20260504210823 59 292 7.0 9.0 0.00 0.07 0.00 63 1003.6
20260504210327 59 302 6.0 10.0 0.00 0.07 0.00 63 1003.6
20260504205835 58 290 3.0 8.0 0.00 0.09 0.00 64 1003.5
20260504205340 58 301 4.0 12.0 0.00 0.09 0.00 64 1003.5
20260504204843 58 254 7.0 16.0 0.00 0.09 0.00 63 1003.4
20260504204347 58 288 6.0 16.0 0.00 0.09 0.00 63 1003.5
20260504203827 58 253 5.0 11.0 0.00 0.09 0.00 64 1003.6
20260504203331 58 292 7.0 15.0 0.00 0.09 0.00 64 1003.5
20260504202836 58 282 8.0 15.0 0.00 0.09 0.00 64 1003.6
20260504202320 58 261 7.0 15.0 0.00 0.09 0.00 64 1003.6
20260504201824 58 304 8.0 16.0 0.00 0.09 0.00 64 1003.5
20260504201330 58 296 10.0 16.0 0.00 0.09 0.00 63 1003.5
20260504200834 58 271 10.0 16.0 0.00 0.09 0.00 64 1003.5
20260504200358 58 305 5.0 12.0 0.00 0.09 0.00 66 1003.6
20260504195822 58 271 6.0 12.0 0.00 0.12 0.00 66 1003.5
20260504195331 58 306 7.0 12.0 0.00 0.12 0.00 65 1003.4
20260504194835 58 276 6.0 14.0 0.00 0.12 0.00 66 1003.5
20260504194340 58 259 7.0 14.0 0.00 0.12 0.00 64 1003.4
20260504193823 59 284 3.0 11.0 0.00 0.12 0.00 66 1003.3
20260504193328 58 283 4.0 14.0 0.00 0.12 0.00 66 1003.4
20260504192833 57 271 7.0 15.0 0.00 0.12 0.00 68 1003.5
20260504192337 56 302 8.0 14.0 0.00 0.12 0.00 70 1003.6
20260504191821 56 281 9.0 16.0 0.00 0.12 0.00 70 1003.7
20260504191327 56 298 9.0 16.0 0.00 0.12 0.00 70 1003.7
20260504190832 56 300 10.0 16.0 0.00 0.12 0.00 72 1003.8
20260504190336 56 293 10.0 15.0 0.00 0.12 0.00 73 1003.8
20260504185824 55 269 9.0 16.0 0.00 0.18 0.00 74 1003.9
20260504185327 55 280 6.0 16.0 0.00 0.18 0.00 75 1003.9
20260504184852 54 259 7.0 12.0 0.00 0.18 0.00 75 1003.9
20260504184335 54 258 8.0 12.0 0.00 0.18 0.00 74 1003.9
20260504183820 54 262 6.0 15.0 0.00 0.18 0.00 73 1004.0
20260504183324 54 298 6.0 16.0 0.00 0.18 0.00 72 1004.0
20260504182830 55 259 10.0 16.0 0.00 0.18 0.00 70 1004.0
20260504182334 55 281 9.0 16.0 0.00 0.18 0.00 69 1003.9
20260504181838 56 307 10.0 18.0 0.00 0.18 0.00 66 1003.8
20260504181322 56 298 12.0 18.0 0.00 0.18 0.00 62 1003.6
20260504180827 57 263 7.0 17.0 0.00 0.18 0.00 58 1003.6
20260504180336 57 284 11.0 17.0 0.00 0.18 0.00 56 1003.3
20260504175820 58 289 7.0 20.0 0.00 0.30 0.00 56 1003.0
20260504175325 58 222 11.0 20.0 0.00 0.30 0.00 53 1002.9
20260504174829 59 301 9.0 18.0 0.00 0.30 0.00 51 1002.7
20260504174353 60 232 11.0 18.0 0.00 0.30 0.00 47 1002.6
20260504173838 60 236 5.0 17.0 0.00 0.30 0.00 47 1002.6
20260504173321 61 270 8.0 17.0 0.00 0.30 0.00 45 1002.5
20260504172846 61 257 8.0 17.0 0.00 0.30 0.00 44 1002.4
20260504172330 62 273 6.0 17.0 0.00 0.30 0.00 44 1002.4
20260504171834 63 283 7.0 18.0 0.00 0.30 0.00 40 1002.4
20260504171338 63 237 8.0 14.0 0.00 0.30 0.00 43 1002.5
20260504170823 62 275 5.0 14.0 0.00 0.30 0.00 44 1002.6
20260504170331 61 292 6.0 19.0 0.00 0.30 0.00 42 1002.6
20260504160326 61 286 6.0 17.0 0.00 0.36 0.00 49 1003.5
20260504150853 57 277 9.0 14.0 0.00 0.38 0.00 50 1004.3
20260504150336 57 226 6.0 15.0 0.00 0.38 0.00 51 1004.5
20260504141325 54 342 7.0 16.0 0.00 0.40 0.00 53 1005.0
20260504140834 54 230 8.0 15.0 0.00 0.40 0.00 54 1005.0
20260504140339 53 304 9.0 20.0 0.00 0.40 0.00 53 1005.0
20260504130338 50 269 10.0 16.0 0.00 0.45 0.00 59 1005.5
20260504110328 41 284 7.0 10.0 0.00 0.54 0.00 82 1004.8
20260504100324 37 259 6.0 10.0 0.00 0.57 0.00 88 1004.1
20260504081826 38 293 7.0 11.0 0.00 0.67 0.00 89 1002.9
20260504081330 38 293 6.0 8.0 0.00 0.67 0.00 89 1003.0
20260504080834 38 289 5.0 9.0 0.00 0.67 0.00 89 1002.8
20260504080339 38 286 5.0 9.0 0.00 0.67 0.00 89 1002.7
20260504070353 40 277 6.0 10.0 0.00 0.72 0.00 89 1002.3